GFSNE_850_spd_057.txt.gz
Wind_Speed
17 15 14 10 6 4 4 5 5 7 6 1 3 6 9 12 12 13 16 24 21 18 21 19 17 18 21 21 23 24 25 26 26 28 29 28 26 24
10 13 16 15 12 7 5 7 7 7 7 6 3 8 5 11 12 17 24 18 18 19 18 17 20 23 23 21 19 20 20 21 21 23 25 28 32 31
11 10 11 10 17 13 12 9 9 9 12 10 10 12 15 18 20 19 16 19 20 20 18 21 23 25 27 30 28 25 22 23 21 23 24 24 25 27
15 13 16 12 13 17 16 14 14 13 14 17 17 17 14 13 10 14 19 21 19 17 21 20 20 24 28 25 24 23 25 24 22 23 23 24 28 24
17 18 18 20 17 15 20 20 19 18 19 21 21 18 19 11 15 19 14 13 20 27 22 22 28 34 22 26 28 25 18 23 24 23 24 25 26 25
22 20 19 19 20 19 18 18 18 20 20 22 24 22 16 14 14 17 24 26 28 29 28 24 17 20 24 21 18 15 19 21 23 26 27 25 25 26
25 27 23 22 21 20 20 19 19 19 18 19 21 20 20 20 24 28 30 29 29 22 20 20 24 19 17 17 12 17 23 26 24 18 22 23 23 25
23 22 25 24 22 20 20 20 21 22 23 24 25 27 29 29 26 23 28 26 29 22 27 23 19 20 15 12 13 18 19 12 22 27 29 31 32 31
27 24 23 23 24 24 24 24 22 21 21 22 25 25 24 21 24 28 24 24 25 25 28 26 22 21 18 18 17 8 15 20 27 25 28 33 37 38
26 25 25 23 22 21 21 22 24 23 23 23 24 24 24 26 29 25 25 26 26 24 23 28 22 22 18 15 5 11 17 24 23 26 30 32 37 38
30 29 28 27 25 22 22 27 29 29 27 27 28 31 33 31 28 25 22 25 26 25 21 24 22 21 15 13 11 14 22 22 24 29 32 35 39 43
35 34 33 32 30 30 31 30 31 30 28 29 29 28 24 23 21 21 23 24 22 25 24 22 20 16 13 6 19 20 18 22 25 28 33 37 38 40
38 37 36 34 33 31 31 33 31 18 18 19 21 22 22 22 18 19 19 20 24 26 22 18 16 15 14 20 22 15 22 22 25 28 31 33 35 38
39 37 36 32 30 26 21 20 19 20 22 23 24 24 23 20 16 15 18 23 25 25 14 11 14 14 16 20 23 23 22 24 26 30 31 32 33 35
38 38 38 35 28 23 22 22 22 27 26 27 27 25 22 18 15 18 20 19 14 11 10 12 13 13 14 19 21 22 24 23 26 28 31 35 37 38
36 38 38 37 37 37 36 35 34 30 27 25 24 22 18 17 18 18 16 12 11 9 12 12 9 11 15 19 20 21 21 20 25 27 29 32 33 34
29 32 37 38 37 37 37 34 30 26 25 24 22 19 18 19 17 10 10 10 10 11 12 11 10 15 17 19 19 22 19 24 24 27 28 29 30 33
26 31 31 33 36 38 38 36 33 29 22 20 18 19 18 17 11 9 11 11 13 14 9 10 11 14 18 19 19 21 23 23 22 27 27 27 27 29
31 30 30 29 30 29 28 25 24 22 22 19 20 19 16 12 11 10 14 13 13 14 15 15 14 15 14 15 19 19 21 18 21 24 26 25 25 26
35 30 24 20 17 16 17 19 20 21 21 21 20 17 16 15 15 17 16 16 17 18 17 17 18 15 12 13 16 19 14 18 20 21 22 19 20 23
26 24 19 13 11 8 18 23 21 22 21 20 18 18 18 18 19 20 19 19 19 19 20 14 10 9 11 12 15 15 15 16 18 20 18 18 18 18
30 30 28 19 12 8 18 21 13 15 16 17 17 18 19 19 21 21 20 20 18 14 13 11 10 12 12 13 14 15 17 16 17 22 18 17 15 12
31 29 27 25 30 34 41 40 28 24 21 19 19 17 16 16 13 12 13 13 13 12 15 14 12 11 13 14 13 13 16 17 20 20 21 19 15 12

GFSNE_850_spd_060.txt.gz
Wind_Speed
16 14 12 9 8 5 3 4 5 4 4 2 2 5 7 10 12 14 19 23 20 17 17 18 20 24 26 27 25 22 21 20 20 21 23 24 27 20
19 18 17 14 13 8 7 5 6 6 7 5 6 9 8 9 13 18 22 19 20 22 21 18 21 22 22 23 23 25 22 19 20 19 19 22 22 23
15 14 17 18 18 14 11 10 9 11 13 12 13 12 13 16 15 14 15 19 22 20 17 19 19 18 20 24 18 20 20 19 17 16 17 22 25 24
14 14 14 16 18 20 18 15 14 14 16 18 15 14 17 14 13 12 14 15 16 22 25 24 21 28 23 17 22 22 14 11 15 19 17 20 19 20
17 17 15 15 17 16 19 20 19 17 19 21 22 22 22 18 13 14 14 17 27 28 25 19 16 16 18 20 15 14 13 17 20 22 23 24 23 22
22 20 18 18 18 20 19 18 19 21 22 23 25 25 22 17 17 18 24 28 25 22 17 14 17 15 12 14 13 10 15 19 22 19 20 23 23 24
23 25 23 21 21 19 20 20 19 20 20 21 23 22 21 21 21 26 28 25 24 21 17 17 16 14 14 13 11 13 18 20 18 24 28 27 29 28
23 24 23 25 25 23 23 22 20 20 21 22 23 24 24 23 21 21 24 28 29 21 23 21 20 17 16 12 12 17 16 15 22 25 27 30 34 35
25 25 24 24 23 23 24 23 23 22 22 21 23 23 24 21 22 25 26 28 27 21 21 22 18 18 16 11 14 11 14 20 23 23 26 31 36 37
28 26 24 23 23 23 22 23 24 23 22 22 25 26 26 25 26 28 31 28 22 19 19 22 19 15 10 11 10 12 17 23 21 23 26 29 34 37
30 28 26 24 21 20 22 24 23 23 22 23 25 26 27 29 30 29 25 22 24 20 18 19 19 14 11 8 7 16 19 20 21 26 29 30 34 38
34 32 30 28 25 23 25 26 28 26 25 25 26 27 27 27 22 21 23 24 21 22 19 23 18 12 7 4 13 19 14 19 22 26 29 31 35 37
38 36 33 30 29 27 28 29 31 28 29 27 23 22 22 21 19 21 22 19 18 18 20 23 17 14 10 12 14 17 20 20 20 24 26 30 33 36
39 35 33 31 29 29 30 30 29 27 27 26 25 25 24 21 20 20 16 15 19 22 23 15 14 11 11 13 14 17 19 20 19 24 26 28 32 34
38 36 32 31 30 29 29 28 25 27 28 30 31 29 24 22 22 18 15 17 20 16 14 12 13 15 14 14 17 18 18 20 21 22 25 28 32 34
35 35 33 32 32 32 30 29 28 28 27 28 29 27 24 22 20 17 17 18 15 12 15 13 14 15 15 15 18 20 19 17 22 19 24 27 29 30
31 33 36 37 37 37 36 34 34 35 35 30 25 22 19 22 18 18 18 15 14 13 14 14 14 13 13 16 17 18 18 20 19 17 21 24 25 27
29 33 38 39 38 36 36 36 35 34 32 29 24 20 20 19 21 19 19 17 13 13 14 16 13 14 15 16 19 18 16 18 14 16 19 23 23 25
30 31 34 33 32 31 29 26 28 27 25 24 21 23 20 21 23 20 18 16 16 17 14 15 16 16 17 20 20 17 17 14 14 15 16 20 22 24
31 34 32 33 34 32 26 20 15 14 14 15 14 20 25 24 21 21 20 18 20 19 16 16 16 17 19 20 21 20 17 14 13 15 16 18 19 20
34 36 36 37 33 29 26 25 26 27 26 19 7 28 30 23 17 20 20 19 18 19 18 17 16 15 14 15 16 17 16 15 15 15 16 18 17 16
32 36 36 37 32 30 27 25 23 25 29 33 31 28 31 24 22 26 25 23 21 21 20 17 15 15 15 16 15 15 16 15 16 17 17 18 18 12
30 29 28 29 32 29 28 28 23 22 26 24 24 21 23 26 25 25 24 21 19 19 19 14 13 14 14 14 17 16 15 17 18 19 20 20 22 21

GFSNE_850_spd_063.txt.gz
Wind_Speed
14 13 10 8 6 5 4 4 5 6 6 4 3 7 9 9 11 15 19 21 18 21 22 21 16 19 20 19 20 21 20 15 17 18 20 19 18 23
19 16 15 13 12 10 7 6 6 7 7 6 8 12 12 13 16 16 16 17 18 19 19 20 23 23 21 19 23 17 19 18 17 14 15 16 17 21
21 21 19 18 17 15 13 11 10 10 13 14 14 14 14 15 15 16 15 16 16 18 25 29 26 23 22 16 17 19 19 15 14 15 18 18 19 20
17 18 16 16 17 18 18 16 14 14 15 17 16 15 16 17 19 18 15 17 18 27 27 21 16 17 20 18 20 18 16 14 17 20 21 20 20 20
18 18 18 15 17 17 18 20 20 19 19 20 22 22 23 21 19 15 17 19 22 22 20 14 17 17 16 18 17 18 13 15 20 20 17 22 22 21
20 21 20 19 19 18 19 17 17 18 19 22 24 24 23 20 19 20 23 21 21 23 17 16 17 16 16 16 15 14 14 17 18 20 23 23 25 25
19 21 23 23 21 20 19 19 19 19 20 21 23 23 23 21 20 20 22 23 25 25 17 18 16 16 16 17 17 14 18 15 18 23 24 26 27 29
24 23 23 23 25 25 23 22 21 21 23 22 23 22 22 20 18 20 24 28 31 23 22 16 18 17 17 18 16 17 13 16 21 23 25 28 30 32
27 26 25 25 25 25 24 25 25 24 23 23 24 23 22 19 21 23 25 28 29 21 22 18 17 14 15 19 15 14 14 20 22 22 24 28 30 32
35 32 30 28 26 25 25 25 24 24 24 24 25 23 22 21 22 23 27 30 26 14 18 19 13 13 16 16 15 11 18 21 21 21 25 28 31 33
40 37 35 32 27 24 24 25 24 25 22 22 23 23 24 24 25 26 26 25 24 19 17 17 15 15 16 15 14 12 19 17 21 23 26 28 31 34
44 42 38 35 30 26 26 26 27 26 22 22 22 23 24 24 23 24 21 22 24 25 14 16 17 17 11 13 11 15 17 19 20 21 25 28 30 33
46 44 40 35 32 29 28 29 30 26 25 26 26 26 25 23 20 20 20 23 24 20 17 18 24 18 16 13 13 15 15 18 21 22 25 26 29 31
45 44 40 36 32 30 30 30 29 28 29 30 30 28 25 21 19 21 21 24 21 16 17 21 23 19 15 17 17 16 17 19 20 24 24 24 26 28
40 41 40 36 34 34 33 31 29 30 30 31 31 26 24 23 24 24 23 23 20 19 20 22 17 17 17 18 19 18 18 20 17 23 22 23 26 27
38 37 38 37 35 35 34 32 31 30 30 31 31 28 24 24 24 20 19 17 21 22 20 16 16 18 19 19 19 18 19 17 19 21 18 19 22 25
35 38 39 40 40 39 37 35 34 32 33 32 30 29 28 22 18 17 16 16 20 20 18 17 17 18 19 19 19 19 20 20 18 17 17 18 21 23
28 34 39 40 40 40 39 38 37 36 35 33 33 30 26 20 20 19 19 19 19 17 20 19 18 19 18 19 20 22 23 21 19 18 17 17 18 21
32 33 36 37 39 42 41 39 38 34 32 34 33 32 29 25 25 22 21 21 20 15 16 18 21 20 20 23 22 22 23 20 22 18 15 16 17 20
35 36 36 35 37 37 35 33 31 29 32 33 34 35 30 28 26 25 23 20 21 16 16 20 24 23 22 22 24 23 19 18 18 18 17 15 17 18
35 36 37 35 34 32 30 29 28 31 33 31 33 31 32 27 28 24 21 19 21 18 16 22 24 23 22 24 23 20 17 16 17 17 18 17 17 19
36 35 35 35 33 33 31 31 32 33 33 33 30 33 32 25 24 24 21 18 17 17 15 19 22 21 20 21 21 19 17 17 17 16 17 17 19 18
38 35 35 34 33 35 33 33 34 32 32 31 31 33 30 31 25 22 17 17 14 14 13 17 17 17 16 16 18 18 18 19 19 19 20 19 20 21

GFSNE_850_spd_069.txt.gz
Wind_Speed
9 8 6 5 4 4 5 6 6 4 4 3 3 8 11 14 15 17 19 20 17 19 23 26 26 23 23 20 16 14 13 15 14 14 15 17 17 15
11 12 10 9 8 8 7 7 7 6 5 9 9 12 12 13 16 18 20 20 18 21 24 25 22 21 22 19 17 15 13 13 12 15 18 16 16 17
13 15 14 13 12 12 12 11 11 11 9 10 14 14 14 15 16 18 19 19 20 21 21 24 17 21 21 21 18 16 13 11 13 17 15 19 18 18
10 12 13 15 15 14 14 14 14 14 14 15 15 15 17 17 18 18 18 18 20 18 21 19 17 20 21 20 18 16 14 12 16 14 19 18 20 20
11 12 12 14 14 13 12 13 12 14 16 18 17 17 19 18 19 19 19 18 17 18 21 17 18 19 20 19 16 16 13 15 13 18 20 19 21 23
13 14 15 15 15 14 14 14 15 16 16 19 16 15 16 18 19 18 17 16 19 18 18 18 17 18 18 18 15 18 15 14 16 20 19 22 23 24
16 14 13 15 15 17 18 18 17 17 15 15 16 16 16 14 15 16 18 17 19 19 20 10 12 17 19 18 16 15 16 14 17 18 20 21 24 27
21 19 18 17 16 15 16 18 19 21 22 19 18 19 20 18 15 16 18 15 14 14 23 14 12 12 18 18 16 16 17 14 19 20 21 23 27 29
24 23 23 22 20 18 17 17 18 20 22 23 26 26 24 22 21 22 18 17 18 18 18 16 12 12 18 17 16 18 18 15 18 20 21 22 25 27
32 29 28 26 25 22 21 21 22 22 23 24 27 26 24 22 21 20 22 24 25 20 14 15 13 14 19 17 18 16 16 17 19 21 22 23 25 26
40 38 36 34 31 28 27 28 28 28 25 25 26 26 24 22 20 22 21 18 21 17 14 18 13 14 17 19 19 13 17 17 18 19 21 21 22 24
46 45 42 40 36 33 32 31 33 31 28 26 25 25 24 24 22 24 25 22 22 20 15 16 14 16 11 16 13 19 16 16 17 18 19 20 21 23
43 44 45 42 39 38 36 36 37 32 30 29 29 28 27 27 26 27 27 28 25 24 19 21 16 15 19 22 24 20 16 18 17 18 17 18 18 20
40 40 43 42 39 37 38 39 37 34 33 31 27 27 27 26 25 26 28 28 30 28 22 26 25 19 19 20 21 18 17 18 17 17 17 19 17 16
35 37 38 38 37 36 34 34 33 34 36 35 33 32 29 28 30 30 29 29 28 28 27 29 27 25 24 26 24 16 17 21 19 17 17 17 16 16
31 29 31 34 35 35 35 35 35 36 37 38 36 34 33 32 33 31 30 27 26 30 29 27 27 25 28 28 26 20 19 19 21 18 19 19 17 15
31 31 32 34 35 34 34 34 34 37 39 40 39 36 35 36 35 32 31 30 26 25 20 25 27 27 27 28 27 24 18 21 22 21 19 20 19 16
24 31 35 37 37 36 37 34 33 36 39 39 40 38 37 35 34 31 30 28 25 25 28 24 30 26 27 29 28 22 20 22 22 21 21 20 16 17
29 32 36 36 38 36 36 34 32 30 33 36 37 37 37 36 35 33 26 25 27 27 24 26 30 30 30 31 24 22 23 23 22 21 22 21 17 19
32 34 36 37 37 35 34 37 38 32 31 34 34 35 35 36 34 34 34 30 28 29 32 33 34 34 31 27 19 17 18 21 21 19 17 19 19 18
36 36 36 36 36 33 32 34 35 35 36 36 36 35 35 35 36 34 31 31 34 35 38 35 34 31 24 27 27 25 23 22 21 20 16 15 13 13
37 37 38 36 35 34 31 30 32 32 33 34 34 33 33 33 33 32 31 30 29 31 33 27 28 24 25 28 25 23 21 20 19 18 18 17 13 11
41 38 39 38 36 35 33 34 35 33 34 35 34 34 34 33 30 31 30 27 22 25 24 22 21 24 24 23 23 23 22 19 20 18 17 18 19 20

GFSNE_850_spd_072.txt.gz
Wind_Speed
7 7 6 6 3 1 1 2 0 1 1 1 1 5 6 7 13 15 13 18 16 18 20 21 22 20 20 18 16 14 12 10 9 11 13 11 13 14
10 11 10 8 7 5 4 4 3 3 5 3 5 7 9 8 12 16 16 18 19 22 20 22 21 20 19 18 16 14 12 9 10 13 12 14 13 14
12 12 12 13 9 9 8 7 7 7 8 8 8 9 13 11 13 16 14 14 13 20 21 22 19 18 17 17 16 14 12 10 13 12 14 14 15 15
11 12 13 12 16 14 11 11 10 10 10 12 12 11 12 13 14 16 14 12 15 15 21 24 19 17 17 16 15 15 14 12 11 14 16 16 18 19
11 12 12 13 15 13 13 12 10 10 11 12 13 12 12 13 13 13 15 14 13 18 17 21 20 18 15 15 14 15 16 14 14 17 17 18 19 20
15 14 14 14 14 13 13 13 12 13 13 14 14 13 13 12 13 13 15 14 15 15 13 14 20 22 17 15 15 15 16 15 14 17 18 20 21 23
16 17 15 16 17 16 14 14 14 14 13 15 15 14 14 13 13 15 16 16 16 14 13 12 16 21 21 17 15 16 17 17 14 18 19 20 22 24
18 19 18 18 16 16 17 18 20 19 18 18 17 18 19 17 15 15 16 17 18 13 15 17 13 14 13 11 16 16 17 17 16 18 20 21 23 24
22 22 21 21 22 21 20 20 20 20 22 22 23 22 22 19 18 17 17 18 17 17 19 18 14 15 17 20 16 16 17 18 18 18 20 21 22 23
27 25 25 26 25 24 22 21 22 21 23 24 27 26 25 23 21 18 19 20 18 16 15 18 14 15 14 18 17 15 14 16 19 20 20 21 21 22
40 38 34 31 31 31 28 25 24 24 22 26 26 27 27 24 24 22 21 19 21 17 15 18 17 14 18 16 22 12 14 17 18 19 19 20 21 23
39 42 45 44 40 38 37 35 35 32 26 24 25 29 29 28 26 26 26 23 22 21 16 16 14 15 18 15 13 25 19 18 17 17 17 18 19 20
34 35 36 39 42 43 43 42 42 36 29 28 27 27 26 25 23 24 29 29 25 24 20 20 19 18 18 21 21 16 18 21 17 17 16 16 17 19
38 34 34 36 39 39 39 41 41 40 35 31 31 30 28 26 25 25 27 30 26 28 27 26 25 21 20 22 22 20 22 13 15 14 14 19 17 17
39 35 35 36 36 37 39 39 35 36 37 35 35 33 30 28 28 28 28 28 30 30 29 30 27 24 22 24 23 21 17 15 14 16 15 16 18 19
41 41 39 39 36 34 35 38 38 38 35 32 33 32 30 28 28 26 27 26 25 23 25 27 27 26 25 24 23 23 21 15 15 14 15 16 20 19
38 39 37 35 34 33 31 31 28 31 39 35 31 31 30 29 29 27 28 27 27 26 25 24 28 26 26 26 28 28 26 20 17 15 17 15 13 17
28 30 32 32 33 31 30 30 29 31 29 27 29 30 31 30 30 28 28 29 29 27 26 24 25 25 28 30 28 29 25 19 18 22 22 17 14 12
32 33 30 33 33 31 31 31 32 29 28 29 30 29 29 30 30 31 30 30 31 30 29 26 27 31 30 25 19 21 21 21 18 17 16 14 13 10
32 34 35 31 32 33 31 31 29 27 28 29 29 28 28 28 29 30 30 31 32 31 31 30 33 31 33 29 23 20 21 18 20 19 15 13 15 19
37 36 40 37 34 35 34 32 31 31 30 30 30 30 28 27 28 29 30 32 32 31 33 32 35 31 32 28 28 20 25 26 26 21 17 16 14 12
36 35 36 33 40 40 35 34 34 35 36 35 34 31 35 35 31 30 29 30 31 31 33 29 30 32 33 31 26 22 29 28 24 24 23 20 17 12
36 36 36 40 39 35 36 37 38 36 37 37 37 35 33 36 36 36 36 35 34 30 25 31 29 30 31 28 28 21 25 27 23 21 21 21 21 21

GFSNE_850_spd_075.txt.gz
Wind_Speed
8 10 9 7 7 3 2 5 6 4 8 3 2 5 4 5 14 15 11 14 16 20 25 23 21 19 17 18 16 14 13 10 10 12 10 13 13 14
10 12 13 6 8 6 6 5 7 6 5 0 4 8 12 12 10 19 13 16 17 18 23 25 22 19 17 17 16 15 13 10 12 10 13 13 13 15
15 10 12 15 8 9 9 9 8 8 10 10 7 8 11 16 13 15 13 13 15 18 19 25 23 23 17 16 15 14 13 12 11 12 12 13 15 17
13 14 14 13 16 15 9 11 10 11 10 14 13 14 13 15 17 19 13 11 12 14 20 22 21 22 22 18 14 13 14 14 12 14 14 15 17 20
13 14 14 15 17 14 14 14 13 11 11 11 13 13 13 14 14 14 14 13 13 13 19 18 18 22 18 22 16 13 13 14 13 15 17 17 19 21
15 15 15 15 17 17 19 17 17 17 13 15 15 14 13 13 14 13 13 12 14 14 11 15 19 21 18 18 21 15 14 14 13 14 18 19 20 20
17 18 17 18 19 19 16 16 15 15 14 14 15 14 14 13 12 12 16 15 16 13 13 13 19 21 18 21 19 18 16 16 16 15 17 19 20 20
21 19 20 21 23 22 22 21 19 19 22 18 16 16 19 18 16 15 16 16 20 13 14 16 15 14 22 20 21 24 17 18 17 16 17 18 19 19
24 25 22 20 24 23 21 21 21 24 26 25 25 24 23 22 23 24 18 19 20 19 19 19 14 13 13 20 19 23 20 17 15 15 16 18 19 18
29 25 27 28 26 24 26 23 25 26 27 27 28 27 26 25 23 22 22 23 20 19 16 18 15 15 15 22 23 23 18 15 16 16 16 17 18 19
39 38 36 32 32 30 28 28 28 28 24 27 27 27 26 25 24 24 23 22 24 21 17 19 19 19 18 22 22 20 20 18 18 16 15 16 17 17
37 40 41 43 43 41 38 36 39 38 30 28 28 28 29 30 29 27 29 27 24 24 19 19 18 18 20 17 24 27 20 21 16 16 15 14 14 15
36 35 35 36 37 40 44 44 46 40 35 33 34 33 32 30 29 26 26 24 26 28 23 22 22 21 20 21 20 24 22 28 22 19 15 12 11 13
39 35 33 33 35 35 35 36 36 37 40 39 36 35 33 31 27 27 30 32 31 32 30 27 27 23 25 25 23 19 16 26 25 21 16 15 12 11
42 40 36 37 35 32 33 35 35 35 37 40 40 40 37 36 33 32 31 30 31 33 32 29 29 29 26 26 26 22 21 20 25 19 15 17 14 15
36 42 43 42 41 36 34 36 40 42 44 44 41 41 38 36 35 33 33 32 31 31 30 29 27 27 28 23 27 27 24 22 16 19 19 15 14 17
28 32 37 40 44 44 39 37 36 33 35 40 40 36 33 33 35 34 34 32 32 31 30 28 29 29 29 25 23 25 25 23 24 24 28 21 16 15
32 24 25 29 31 29 30 31 32 34 35 32 30 32 36 34 34 33 33 33 33 32 31 30 27 25 27 28 31 29 32 32 23 23 25 24 17 14
31 34 31 27 29 31 30 30 31 29 31 31 33 31 30 30 32 34 33 32 33 33 34 32 29 28 28 30 26 24 26 22 22 22 26 26 22 17
41 40 33 34 36 31 31 31 30 29 27 29 29 30 31 31 30 30 31 33 34 34 32 30 31 31 33 35 34 29 26 21 21 23 27 22 20 22
29 36 44 40 34 35 33 30 34 37 36 28 27 30 31 30 31 31 31 31 32 31 32 33 33 33 34 36 34 33 33 35 32 29 25 28 25 24
28 30 36 35 40 35 35 34 31 33 36 37 39 38 36 37 37 35 34 31 30 32 36 37 33 32 32 33 33 31 34 33 35 30 33 28 27 21
32 25 30 32 30 34 33 31 33 30 32 34 34 35 37 36 35 35 37 36 40 38 36 35 33 35 34 31 32 33 29 28 34 31 32 32 34 32